Location: Firdgum
(53.2488°N, 5.5615°E)
Time: 03:27:18
(UTC+00:00)

CZ-2C R/B - Pass Details

Date: 08 December 2019
Orbit: 668 x 784 km, 98.1° (Epoch: 20 January)

Event Time Altitude Azimuth Distance (km) Brightness Sun altitude
Rises 05:53:24 0° 5° (N) 3,068 5.5 -14.6°
Reaches altitude 10° 05:56:19 10° 347° (NNW) 2,131 4.5 -14.1°
Enters shadow 05:58:19 16° 322° (NW) 1,732 3.8 -13.9°
